Weather in Resolute

Canada     74°42′29″N   94°58′11″W
temp.,
°C
wind,
m/s
gust,
m/s
humid.,
%
clouds,
%
prec.,
mm/h
press.,
hPa
HPBL,
m
16 october, sat
sat1601:00−3se81293100 0.0 1021286
04:00−3ese81290100 0.1 1021283
07:00−3ese81290100 0.1 1020279
10:00−3ese81289100 0.0 1020339
13:00−2ese81386100 0.0 1019406
16:00−2ese91490100 0.0 1018378
19:00−2ese91689100 0.1 1016423
22:00−2ese101590100 0.0 1015516
17 october, sun
sun1701:00−2ese91584100 0.1 1014545
04:00−3ese101582100 0.0 1012488
07:00−3ese101595100 0.8 1011533
10:00−3ese111787100 0.9 1010475
13:00−3ese111786100 0.9 1009482
16:00−3ese111881100 0.0 1008516
19:00−3ese121895100 1.3 1007545
22:00−2ese121896100 5.4 1006584
18 october, mon
mon1801:00−2ese121896100 8.9 1004568
04:00−2se121895100 1.5 1004554
07:00−2ese111695100 2.3 1003493
10:00−2ese111696100 2.0 1002596
13:00−2ese111888100 3.6 1000764
16:00−3ese111695100 2.0 997667
19:00−2ese111796100 4.8 995647
22:00−3se111495100 1.6 997509
19 october, tue
tue1901:00−4sse91496100 2.4 999556
04:00−3s61396100 1.0 1001554
07:00−3sw589794 1.8 1004238
10:00−8w699593 0.4 1008251
13:00−10w699699 0.5 1013264
16:00−12w479894 0.1 1017142
19:00−14w3410097 0.1 102043
22:00−14w1210098 0.0 102130
20 october, wed
wed2001:00−15sw1110075 0.0 102311
04:00−16ese1110092 0.0 102310
07:00−10sse349899 0.0 1022114
10:00−8s4797100 0.0 1022204
13:00−7sw4695100 0.2 1022308
16:00−9w359791 0.4 1022115
19:00−11nw369764 0.5 102499
22:00−14nnw469981 0.0 102684